Location: Newark
(52.8300°N, 8.0000°E)
Time: 06:35:18
(UTC+00:00)

STARLINK-1096 - Pass Details

Date: 29 January 2020
Orbit: 344 x 355 km, 53.0° (Epoch: 24 February)

Event Time Altitude Azimuth Distance (km) Brightness Sun altitude
Rises 17:45:29 0° 284° (WNW) 2,183 8.0 -14.9°
Reaches altitude 10° 17:47:33 10° 277° (W) 1,336 6.8 -15.2°
Maximum altitude 17:50:23 42° 205° (SSW) 528 3.8 -15.6°
Enters shadow 17:51:53 22° 145° (SE) 836 4.3 -15.8°
